Regional Weather Roundup
Issued by NWS

Home | Current Version | Previous Version | Text Only | Print | Product List | Glossary Off
Versions: 1 2 3 4 5 6 7 8 9 10 11 12 13 14 15 16 17 18 19 20 21 22 23 24 25 26 27 28 29 30 31 32 33 34 35 36 37 38 39 40 41 42 43 44 45 46 47 48 49 50

231
ASUS43 KFSD 131610
RWRSD

WEATHER ROUNDUP FOR SOUTH DAKOTA
NATIONAL WEATHER SERVICE SIOUX FALLS SD
1000 AM CST SAT FEB 13 2016

NOTE: "FAIR" INDICATES FEW OR NO CLOUDS BELOW 12,000 FEET WITH NO
SIGNIFICANT WEATHER AND/OR OBSTRUCTIONS TO VISIBILITY.


SDZ001>005-009-010-012>017-131700-
NORTHWEST AND NORTH CENTRAL SOUTH DAKOTA

CITY           SKY/WX    TMP DP  RH WIND       PRES   REMARKS
BUFFALO          N/A     22  19  89 SE14      29.90F WCI   9
FAITH            N/A     17  13  84 SE20G25   30.03F WCI   1
MOBRIDGE       CLOUDY    13   5  70 SE21      30.20F WCI  -5
$$

SDZ012>016-024>037-041>051-057-063-072>074-131700-
SOUTHWEST AND SOUTH CENTRAL SOUTH DAKOTA

CITY           SKY/WX    TMP DP  RH WIND       PRES   REMARKS
RAPID CTY ARPT CLOUDY    33  30  88 S13       29.96F WCI  24
PIERRE         CLOUDY    17  12  80 SE22G28   30.20F WCI   0
CUSTER         CLOUDY    35  32  88 CALM      29.94F
ELLSWORTH AFB  CLOUDY    33  31  94 S10       29.94F WCI  25
PHILIP         CLOUDY    30  26  85 SE12      30.07F WCI  20
PINE RIDGE     CLOUDY    35  30  82 S14       30.02F WCI  26
SPEARFISH        N/A     27  27 100 CALM      29.94S
WINNER         FAIR      23  12  62 S26G35    30.21F WCI   6
$$

SDZ004>011-016>023-039-040-131700-
NORTHEAST SOUTH DAKOTA

CITY           SKY/WX    TMP DP  RH WIND       PRES   REMARKS
ABERDEEN       CLOUDY     9  -3  58 SE22      30.38F WCI -11
WATERTOWN      CLOUDY     4  -8  57 SE14      30.39F WCI -14
BROOKINGS      CLOUDY     2  -6  69 SE15      30.43F WCI -17
SISSETON         N/A      1  -6  72 S17       30.48F WCI -19
$$

SDZ017-020-022-023-036>040-048>070-131700-
SOUTHEAST SOUTH DAKOTA

CITY           SKY/WX    TMP DP  RH WIND       PRES   REMARKS
SIOUX FALLS    CLOUDY     3  -5  69 SE15      30.49F WCI -16
HURON          CLOUDY     8  -2  63 SE20G28   30.40F WCI -11
CHAMBERLAIN    CLOUDY    17  11  76 SE23      30.27F WCI   0
MITCHELL       CLOUDY     9   1  70 SE20      30.43F WCI -10
YANKTON        CLOUDY     9   0  66 SE10      30.50F WCI  -6
$$

ABBREVIATIONS USED IN REMARKS
   TC - TEMPERATURE IN CELSIUS
  WCI - WIND CHILL INDEX
   HX - HEAT INDEX
  VSB - VISIBILITY





USA.gov is the U.S. government's official web portal to all federal, state and local government web resources and services.